Weather in Yanrakynnot

Russia / Chukotka Autonomous Okrug     64°54′35″N   172°29′50″W
temp.,
°C
wind,
m/s
gust,
m/s
humid.,
%
clouds,
%
prec.,
mm/h
press.,
hPa
HPBL,
m
17 august, wed
wed1700:00+2nnw45865 0.0 1016112
03:00+1nw44885 0.0 101699
06:00+4nnw586839 0.0 1015869
09:00+6n6757100 0.0 10151318
12:00+7n6754100 0.0 10131318
15:00+8nne785259 0.0 10121287
18:00+6nne68597 0.0 10121031
21:00+2n487425 0.0 1012211
18 august, thu
thu1800:00+1nw47776 0.0 1011179
03:00+1nnw477596 0.0 1010174
06:00+4nnw6866100 0.0 10091144
09:00+5nnw8960100 0.0 10091223
12:00+6nnw10116299 0.0 10081314
15:00+5nnw91064100 0.0 10081261
18:00+5nnw911687 0.0 1009802
21:00+3nw5975100 0.0 1010469
19 august, fri
fri1900:00+3nw378293 0.0 1010449
03:00+3nw3582100 0.0 1010333
06:00+3nw2584100 0.1 1011316
09:00+4nw2382100 0.0 1012350
12:00+5nw2486100 0.0 1012445
15:00+5wnw1184100 0.0 1013337
18:00+4n2392100 0.0 1013324
21:00+4nnw2293100 0.0 1015175
20 august, sat
sat2000:00+4n3494100 0.0 1015192
03:00+4nne3496100 0.0 1015173
06:00+5nne3491100 0.1 1016300
09:00+7nne3480100 0.0 1016496
12:00+10nne456499 0.0 1015713
15:00+11nne685254 0.0 10141359
18:00+8ne38677 0.0 1015374
21:00+6nnw347590 0.0 101541
21 august, sun
sun2100:00+7nnw4675100 0.0 1015138
03:00+6nnw4581100 0.0 1015101
06:00+7nnw4875100 0.0 1016306
09:00+9n6770100 0.0 1016554
12:00+11nnw7857100 0.0 1016840
15:00+12nne775878 0.0 1016908
18:00+9n687082 0.0 1017444
21:00+6nnw468769 0.0 1018100